Location: Berlin
(52.5171°N, 13.3759°E)
Time: 03:47:05
(UTC+01:00)

ISS - Pass Details

Date: 13 November 2017
Orbit: 401 x 407 km, 51.6° (Epoch: 18 November)

Event Time Altitude Azimuth Distance (km) Brightness Sun altitude
Exits shadow 06:35:32 - 264° (W) 1,588 -1.4 -7.7°
Reaches altitude 10° 06:35:58 10° 259° (W) 1,456 -1.5 -7.6°
Maximum altitude 06:38:13 17° 216° (SW) 1,091 -1.8 -7.3°
Drops below altitude 10° 06:40:27 10° 172° (S) 1,450 -0.6 -7.0°
Sets 06:42:58 0° 152° (SSE) 2,306 0.9 -6.6°
